RH
66 46 54 42 47 41 33 34 30 29 22 24 22 23 32 64 90 84 76 68 80 82 76 76 86 91 86 100 99 84 97 92 82 90 80 84 82 93 87 71 54 46 36 30 33
65 60 58 59 54 49 47 51 47 31 21 21 23 26 22 31 52 90 83 88 90 94 93 100 100 97 73 80 88 100 98 78 84 71 90 88 90 97 82 64 52 36 32 22 19
59 55 61 51 58 49 54 49 38 34 29 23 28 28 32 22 32 62 97 92 100 95 100 100 100 100 84 78 100 100 87 100 78 81 93 79 100 98 69 43 32 32 30 25 16
65 58 53 51 48 47 50 58 43 38 35 27 27 29 31 32 33 54 73 88 100 100 100 100 100 97 93 100 100 89 100 77 73 93 78 88 82 75 58 35 28 29 26 17 8
61 56 54 50 44 41 41 40 39 39 39 32 24 25 24 24 35 45 90 94 100 100 100 100 94 100 100 100 100 100 93 71 97 100 85 98 78 62 41 33 35 30 19 11 6
49 47 41 38 40 35 32 33 30 29 31 26 23 20 21 22 36 45 77 100 100 100 100 100 100 100 100 100 100 100 82 74 96 100 100 88 70 44 39 39 45 23 19 7 7
51 50 44 41 44 38 33 35 28 27 22 23 26 24 22 20 28 36 70 100 100 100 100 100 100 100 100 100 100 100 67 82 91 91 68 74 51 34 41 53 28 23 14 8 5
49 53 47 50 54 46 39 32 31 30 24 23 23 22 26 22 25 34 61 100 100 100 100 100 100 100 100 90 100 99 69 77 71 64 59 66 47 42 56 49 28 21 10 7 3
53 52 56 57 59 63 51 36 33 28 27 21 25 25 26 27 32 47 70 100 100 100 100 100 100 100 100 100 98 78 76 76 90 68 68 75 47 50 61 42 23 19 9 5 3
52 55 53 58 57 50 54 46 33 32 26 21 25 26 27 28 36 68 63 100 100 100 100 100 100 100 100 100 100 70 84 80 90 80 78 83 61 58 54 30 23 16 9 4 3
48 49 50 56 70 60 62 50 33 37 26 18 20 22 26 33 44 53 70 99 100 100 100 100 100 100 100 100 83 89 78 65 96 100 85 96 72 61 41 25 21 12 8 4 4
61 57 57 59 56 50 52 45 53 32 25 11 12 17 26 40 49 67 97 100 100 100 100 100 100 100 100 92 100 76 83 67 100 100 72 91 84 50 33 25 18 10 5 4 4
79 89 86 65 63 76 56 46 55 29 13 12 13 15 30 45 61 75 100 100 100 100 100 91 100 100 100 100 100 99 87 79 100 93 86 96 69 48 26 24 16 8 4 4 4
98 83 97 93 91 90 59 70 45 19 11 13 14 24 39 54 73 90 100 100 100 100 100 100 100 100 100 100 93 100 74 77 100 98 90 81 62 44 27 22 14 8 4 4 4
100 100 94 92 92 58 67 73 16 12 11 14 16 27 44 57 74 97 100 100 100 100 100 100 86 100 100 100 96 83 84 93 100 100 91 79 58 36 27 19 12 7 4 4 4
100 100 97 100 64 60 76 40 11 10 11 13 18 34 54 70 96 100 100 100 100 100 100 100 100 100 100 98 72 72 100 97 100 85 97 82 48 35 26 17 12 6 4 5 4
100 100 78 80 77 57 80 18 11 10 12 12 18 43 62 78 91 100 100 100 100 100 100 100 100 100 100 87 71 95 100 100 86 88 83 62 41 33 22 16 10 7 4 5 5
51 50 63 77 84 75 78 10 10 10 10 11 18 48 61 73 86 100 100 100 100 100 100 100 100 100 89 75 88 95 100 84 88 86 80 59 37 32 23 16 8 8 5 6 4
23 32 96 78 69 61 17 10 10 9 10 11 21 46 53 59 74 93 100 96 100 100 100 100 100 100 72 100 100 100 92 92 97 94 84 51 33 35 25 13 7 8 5 6 4
21 67 75 69 60 18 10 9 10 10 11 14 32 44 44 50 66 78 95 100 100 100 100 100 100 77 100 100 100 99 99 100 91 89 58 42 34 35 34 13 9 7 6 7 4
29 51 62 42 16 9 9 9 10 10 13 26 38 37 34 57 76 79 95 100 100 99 93 84 87 100 100 100 100 100 100 94 94 75 50 38 33 31 30 13 9 7 6 7 5
32 28 15 10 10 10 10 10 11 13 17 29 43 30 24 27 64 96 100 100 100 100 100 100 100 100 100 100 96 100 93 95 86 63 48 41 40 32 26 13 10 7 6 7 5
14 12 11 10 9 10 10 11 14 19 29 36 45 40 32 27 45 70 84 94 100 100 100 100 100 100 100 100 98 100 85 94 75 56 55 44 39 37 24 15 10 8 6 7 6
11 10 10 9 10 10 10 11 15 26 43 44 60 41 36 31 31 54 91 100 100 100 100 100 100 100 100 83 99 90 89 83 64 56 63 53 41 38 25 13 11 7 6 7 7
11 10 10 10 9 10 10 18 21 42 57 44 52 46 26 32 47 59 66 82 89 87 91 92 91 84 75 98 100 81 100 74 61 63 71 52 50 37 28 16 12 9 7 7 8
10 10 10 10 10 10 13 20 31 64 61 52 47 57 41 43 63 71 66 68 72 77 90 89 93 86 91 100 94 99 99 77 76 69 67 58 55 37 34 23 11 10 7 7 8
10 10 10 10 11 12 21 46 50 70 60 63 54 60 62 57 70 74 72 74 71 73 85 88 100 100 100 98 85 86 92 86 75 75 72 65 51 42 34 27 12 9 7 6 9
Wind_Speed
51 57 57 55 56 61 58 61 65 66 57 61 60 65 65 58 56 51 51 47 45 43 44 46 48 47 45 45 52 55 57 61 64 68 72 75 80 81 85 89 94 97 102 105 106
51 59 59 60 63 64 68 70 69 68 53 58 63 67 62 65 62 58 53 51 49 50 50 50 49 47 50 48 52 56 60 62 66 70 74 79 83 85 89 93 97 102 106 105 105
58 60 57 62 66 70 71 75 74 73 73 68 68 59 67 63 68 64 59 56 55 54 50 49 49 53 53 53 54 60 60 63 69 73 76 83 83 85 91 97 100 101 103 107 112
54 60 61 59 64 67 70 68 75 80 80 79 76 76 70 71 67 68 65 62 58 55 54 52 51 54 55 53 57 61 59 68 72 74 81 82 85 91 97 98 100 101 103 105 101
59 63 68 71 76 70 68 72 76 80 80 84 84 80 72 71 68 62 62 62 60 60 56 52 55 52 51 54 60 57 65 70 72 77 82 83 88 93 96 99 101 104 106 103 92
70 69 70 70 71 72 76 79 79 80 79 80 86 85 78 66 67 63 61 62 56 58 58 53 51 49 50 57 62 62 67 70 75 79 82 85 90 93 96 102 104 104 110 99 86
71 66 68 73 67 68 72 74 76 79 83 84 86 86 84 76 66 63 67 64 59 61 57 54 50 51 56 58 64 66 71 71 76 78 82 82 91 92 97 103 102 106 106 98 77
76 74 77 73 77 76 78 76 75 78 83 79 77 74 81 74 68 66 63 64 61 54 55 50 53 56 56 59 62 67 70 73 72 76 77 80 93 96 97 105 104 106 99 89 66
82 84 80 85 81 78 83 83 81 80 80 78 77 71 72 73 68 65 64 67 57 56 55 57 52 55 59 55 64 72 70 74 73 78 80 87 93 97 96 107 103 103 98 76 61
89 90 89 87 86 85 89 92 83 80 78 74 70 72 70 72 67 66 65 55 49 57 53 54 54 57 55 56 67 69 73 72 74 79 83 89 92 99 102 98 101 98 90 69 53
91 91 92 93 91 91 90 92 89 82 78 70 65 65 66 65 64 62 62 53 53 54 52 54 53 57 56 63 67 68 70 72 72 78 87 89 94 97 97 96 96 95 82 63 51
90 90 95 93 91 93 94 91 90 82 70 66 61 58 57 58 60 61 58 54 51 52 52 57 52 56 58 62 62 70 70 71 72 80 86 87 94 97 96 96 90 87 68 59 47
92 95 97 95 93 94 98 90 90 76 62 61 56 52 51 53 55 55 54 59 57 60 52 52 54 55 61 60 64 71 71 71 74 81 84 85 92 94 94 90 86 82 65 48 33
99 104 99 104 98 96 93 95 86 69 58 56 52 45 47 49 49 49 53 53 53 58 45 51 51 55 61 62 67 71 73 73 76 79 81 85 88 89 92 88 81 73 58 44 31
104 108 107 103 99 95 94 93 78 64 53 52 47 43 44 47 45 44 49 58 52 52 51 58 59 62 65 67 68 70 70 73 74 78 81 86 86 85 87 81 74 69 54 36 25
110 118 112 110 96 89 90 83 69 59 51 48 43 41 42 44 43 41 42 55 55 52 48 54 58 59 60 65 68 65 70 72 70 82 76 77 79 79 81 65 68 58 45 31 17
107 122 110 98 94 85 87 75 62 55 48 45 41 40 41 44 44 40 39 41 43 49 50 56 55 58 62 67 65 66 68 69 74 73 70 74 78 79 72 67 61 52 39 25 13
105 103 84 83 84 84 81 67 57 54 48 44 41 40 41 44 47 45 42 41 46 46 45 48 56 59 64 67 64 66 66 71 69 64 66 70 75 77 66 61 57 45 32 21 7
87 81 75 80 80 75 67 60 55 52 47 43 39 39 41 44 47 49 49 48 51 51 50 51 56 60 64 63 64 65 68 65 55 56 60 67 72 73 67 55 52 41 28 13 1
75 69 70 74 77 64 59 55 53 49 45 40 38 38 40 44 47 47 49 50 50 52 53 54 58 61 60 61 62 66 62 52 51 53 60 64 66 69 68 51 49 35 22 5 8
68 62 67 66 61 56 53 52 50 46 42 38 36 36 40 44 44 46 48 49 50 54 56 57 58 56 57 60 61 61 53 47 49 53 58 61 62 63 62 43 41 30 19 1 15
56 51 56 53 53 51 50 50 47 43 40 36 34 35 39 41 46 47 46 48 52 53 56 56 58 57 57 57 60 45 47 41 46 52 56 59 62 60 57 47 34 25 17 4 21
47 47 51 50 48 49 46 47 43 41 38 36 33 34 37 40 42 44 46 48 51 53 54 54 56 54 58 54 46 44 47 38 45 50 53 56 60 58 53 44 31 20 15 8 25
45 44 48 47 46 45 45 43 42 39 37 34 31 31 33 37 39 43 44 43 46 52 53 53 54 50 46 43 38 37 33 36 43 47 51 53 59 55 52 39 28 16 11 10 31
43 45 47 45 44 43 42 41 41 38 38 34 31 32 33 34 35 36 38 38 39 41 42 42 41 40 36 37 33 33 30 35 40 43 49 52 57 51 51 43 25 17 6 13 35
45 46 46 44 42 39 38 40 40 40 37 33 28 29 31 32 34 33 34 36 37 38 38 37 34 31 29 29 29 29 29 34 38 41 48 52 51 47 49 49 22 18 4 15 37
43 46 43 42 41 39 39 40 39 40 35 34 28 29 31 30 31 31 30 30 29 27 25 24 26 25 25 26 29 29 30 33 36 42 46 46 45 43 46 47 26 14 6 16 36
Wind_Direction
298 301 299 298 290 300 301 300 295 297 294 296 290 285 275 273 275 275 277 275 275 277 281 282 284 286 287 287 289 297 300 302 304 303 304 305 307 305 304 304 303 301 301 302 303
293 297 298 297 298 297 296 291 298 297 293 294 290 286 284 273 272 271 274 273 274 275 279 284 286 283 287 287 293 294 299 302 303 304 303 304 307 305 306 305 303 304 307 308 306
286 293 294 295 293 295 295 295 298 300 300 304 298 290 289 287 274 268 269 269 272 273 275 282 277 282 287 293 288 293 298 301 304 305 303 305 304 303 305 306 307 309 312 312 309
286 285 287 293 293 293 291 294 292 294 294 298 297 294 291 282 289 271 266 267 271 275 274 277 276 282 287 289 289 296 300 304 305 302 303 305 305 306 305 308 312 315 315 310 305
290 290 291 289 289 291 291 290 289 291 290 294 295 293 292 291 285 275 264 264 272 274 276 273 282 284 285 287 290 294 299 306 303 300 305 304 305 306 308 311 319 318 314 309 315
295 295 295 295 293 292 291 287 289 287 287 287 290 290 287 290 282 278 267 264 261 266 271 273 280 282 286 285 289 293 302 306 303 304 303 304 306 308 314 317 320 318 316 314 321
296 298 297 297 299 299 295 292 292 292 293 286 286 284 287 285 279 275 265 259 258 263 266 270 279 282 286 283 288 292 301 305 304 304 305 307 310 311 317 321 320 320 316 322 320
296 297 298 302 305 302 303 300 297 294 292 290 287 284 279 280 276 273 263 255 257 260 262 271 276 284 286 291 286 292 302 305 305 307 309 310 314 317 318 323 321 321 318 323 319
296 299 300 303 304 305 308 306 304 300 293 291 285 280 280 276 273 264 260 255 259 258 260 273 277 277 287 287 288 297 301 302 301 307 313 313 316 318 319 322 322 321 322 325 319
299 301 301 304 303 308 311 311 308 303 298 293 284 280 276 272 268 260 260 255 257 253 267 270 275 280 286 283 292 296 301 301 299 305 313 314 317 320 321 323 326 321 325 326 321
297 298 299 302 304 307 310 314 308 304 301 293 288 281 276 268 266 260 255 247 251 253 262 267 270 280 279 287 292 297 299 302 303 306 311 313 315 320 321 325 326 322 327 325 322
299 299 299 302 305 307 307 309 311 304 298 292 287 282 274 268 265 257 255 243 249 256 267 268 267 276 277 289 290 299 298 304 303 305 312 313 316 321 322 327 325 324 328 329 323
302 302 301 301 303 305 306 307 311 303 295 290 285 279 271 264 261 257 247 242 250 256 266 267 275 276 280 281 289 297 295 305 302 306 313 314 317 320 324 329 327 330 331 327 321
299 300 300 300 303 303 308 308 308 300 294 289 283 274 265 259 255 256 245 242 251 250 265 260 263 271 276 278 290 294 296 304 305 309 311 314 319 321 326 331 328 331 331 330 332
294 295 298 299 299 301 305 308 303 294 292 287 280 272 262 259 257 249 247 237 250 254 260 266 270 271 271 276 287 294 298 303 306 309 311 313 317 321 329 329 330 335 332 333 336
293 290 294 294 295 298 304 304 297 290 290 283 277 269 260 255 252 245 244 240 247 250 255 265 264 271 274 280 289 297 297 303 307 311 308 313 317 324 330 331 331 333 332 332 340
292 290 294 292 294 296 302 298 292 285 285 279 273 265 255 252 247 242 241 240 242 244 254 258 270 273 278 283 290 295 298 303 307 307 310 315 321 326 334 334 336 333 334 335 347
288 288 289 288 290 297 296 290 287 280 281 275 270 261 252 248 246 240 239 238 241 249 265 268 271 277 280 285 288 293 299 306 307 308 314 318 322 328 338 336 335 337 335 340 3
283 284 285 289 288 293 288 285 281 277 277 272 267 261 254 249 246 242 243 243 247 256 262 266 271 277 281 282 288 293 301 305 304 310 314 318 324 332 338 339 339 344 333 349 144
282 282 284 285 287 284 282 279 277 274 273 267 263 259 255 250 249 247 242 245 250 255 259 265 270 276 278 282 288 295 299 297 303 308 312 321 326 336 340 343 335 343 332 0 172
279 283 283 281 278 279 278 276 272 270 267 260 258 256 252 248 249 250 248 245 248 255 260 264 268 270 276 283 289 296 290 298 304 309 313 322 328 338 339 346 334 340 327 126 178
280 280 277 275 275 277 274 270 267 265 260 255 254 254 251 247 247 248 248 250 250 252 255 259 264 269 276 281 289 286 288 300 304 307 316 325 330 338 343 344 337 337 323 188 178
278 278 273 272 271 270 265 262 260 258 254 251 249 250 250 247 246 248 251 252 252 254 257 261 265 270 274 279 285 279 288 299 303 310 320 326 333 339 343 351 338 336 317 198 180
275 273 270 269 267 263 258 257 255 252 249 247 245 249 247 248 248 248 249 252 253 254 258 262 266 268 272 280 277 280 290 301 305 316 321 327 334 340 344 356 343 332 304 204 185
272 268 266 262 257 254 255 252 251 246 245 245 245 252 250 248 250 251 252 253 253 255 258 263 266 270 275 275 268 285 291 302 308 317 321 328 333 341 347 354 353 334 308 208 186
266 263 259 256 254 251 250 248 244 243 245 244 246 247 247 245 246 246 251 254 257 259 262 265 269 275 272 256 275 284 292 301 308 315 322 329 333 343 348 349 358 349 332 213 186
263 258 255 251 250 246 241 239 241 238 240 238 241 239 244 246 248 249 255 258 260 261 261 262 259 259 258 263 278 284 290 300 305 316 321 328 335 344 348 349 359 346 310 209 189